www.pogodaiklimat.ru

Погода и климат >> Архив погоды >> Сенегал >> Podor


ПОГОДА в Podor

  • Прогноз погоды в Podor
  • Монитор погоды в Podor
  • Климат города

АРХИВ ПОГОДЫ в Podor

Время (UTC), дата Ветер
(напр.,м/с)
 
Видим.   Явления Облачность Т
(С)
Тd
(С)
f
(%)
Тe
(С)
Тes
(С)
Комфортность P
(гПа)
Po
(гПа)
Тmin
(С)
Tmax
(С)
R
(мм)
R24
(мм)
S
(см)
03 14.06 З 1 10 км 6/0
[Ac cast]
+28.0 +17.9 54 +32 +32 душно 1012.7 1011.9
06 14.06 Ю 2 10 км 8/0
[Ac As]
+28.0 +18.0 55 +33 +33 очень
душно
1013.5 1012.7 +26.8
09 14.06 Ю 2 10 км 9/0
[Ac As]
+27.9 +18.8 58 +33 +36 очень
душно
1014.1 1013.3
12 14.06 Ю 2 10 км 9/0
[Ac As]
+30.0 +19.4 53 +36 +43 очень
душно
1014.4 1013.7
15 14.06 Ю 1 10 км 9/0
[Ac As]
+32.0 +19.0 46 +37 +45 очень
душно
1014.0 1013.2
18 14.06 З 2 10 км 9/0
[Ac As]
+31.5 +18.9 47 +37 +38 очень
душно
1012.8 1012.0 +32.5
21 14.06 В 1 10 км 5/0
[Ac trans]
+30.2 +19.0 51 +36 +36 очень
душно
1013.4 1012.6
00 15.06 З 2 10 км ясно +28.5 +20.2 61 +35 +35 очень
душно
1013.7 1012.9
03 15.06 З 1 10 км ясно +26.1 +18.5 63 +31 +31 очень
душно
1012.3 1011.5
06 15.06 ЮЗ 1 10 км 5/0
[Ac cast]
+25.0 +18.1 66 +29 +29 душно 1012.6 1011.8 +24.4
09 15.06 ЮЗ 1 10 км 5/0
[Ac cast]
+26.6 +19.2 64 +32 +38 очень
душно
1013.5 1012.7
12 15.06 З 1 10 км 6/0
[Ac cast]
+34.3 +18.8 40 +39 +53 опасность
солнечного
удара
1013.8 1013.0
15 15.06 З 1 10 км 8/0
[Ac cast]
+38.8 +17.1 28 +41 +50 опасность
перегрева
1012.8 1012.0
18 15.06 10 км 8/0
[Ac cast]
+38.2 +16.0 27 1011.5 1010.7 +40.3
21 15.06 З 2 10 км ясно +33.0 +15.6 35 +35 +35 душно 1012.5 1011.7
00 16.06 ЮЗ 2 10 км ясно +28.5 +17.5 51 +33 +33 очень
душно
1014.1 1013.3
03 16.06 ЮЗ 2 10 км ясно +26.0 +17.8 61 +30 +30 душно 1013.3 1012.5
06 16.06 ЮЗ 2 10 км 5/0
[Ac cast]
+24.6 +16.5 61 +28 +28 душно 1013.5 1012.7 +24.1
09 16.06 З 2 10 км ясно +28.2 +17.5 52 +32 +39 душно 1014.5 1013.7
12 16.06 СВ 2 10 км ясно +36.0 +15.7 30 +38 +58 опасность
солнечного
удара
1015.0 1014.2
15 16.06 З 1 10 км ясно +40.0 +15.2 23 +41 +61 опасность
перегрева
1012.8 1012.0
18 16.06 СВ 1 10 км ясно +39.8 +14.8 23 +41 +44 опасность
перегрева
1011.4 1010.6 +41.0
21 16.06 З 2 10 км ясно +32.0 +10.6 27 +32 +32 жарко 1013.5 1012.7
00 17.06 З 3 10 км 4/0
[Ac cast]
+28.3 +10.1 32 +29 +29 жарко 1014.5 1013.7
03 17.06 З 1 10 км ясно +26.5 +12.9 43 +28 +28 жарко 1013.8 1013.0
06 17.06 СЗ 2 10 км 5/0
[Ac cast]
+24.6 +16.0 59 +28 +28 душно 1014.5 1013.7 +24.1
09 17.06 З 1 10 км 4/0
[Ac trans]
+27.9 +14.4 44 +30 +36 жарко 1015.2 1014.4
12 17.06 З 1 10 км ясно +34.6 +15.0 31 +36 +60 опасность
солнечного
удара
1015.4 1014.6
15 17.06 СВ 1 10 км ясно +38.6 +16.1 27 +41 +62 опасность
перегрева
1013.0 1012.2
18 17.06 З 2 10 км ясно +39.4 +15.1 24 +40 +43 очень
душно
1012.0 1011.2 +40.7
21 17.06 З 2 10 км ясно +30.8 +15.1 39 +33 +33 душно 1014.0 1013.2
00 18.06 З 2 8000 м 3/0
[Ac trans]
+25.1 +13.8 49 +27 +27 жарко 1015.1 1014.3
06 18.06 З 2 10 км 4/0
[Ac cast]
+22.5 +16.1 67 +27 +27 душно 1014.2 1013.4 +22.0
09 18.06 ЮЗ 2 10 км 4/0
[Ci sp]
+24.6 +17.6 65 +29 +35 душно 1016.2 1015.4
12 18.06 З 1 10 км 4/0
[Ci sp]
+30.2 +17.5 47 +34 +57 опасность
солнечного
удара
1016.6 1015.8
15 18.06 З 2 10 км 8/0
[Ac cast]
+34.8 +15.6 32 +37 +44 очень
душно
1014.3 1013.5
18 18.06 З 2 10 км 8/0
[Ac cast]
+35.2 +14.7 29 +36 +37 очень
жарко
1013.0 1012.2 +36.1
21 18.06 З 1 10 км 5/0
[Ac cast]
+29.0 +16.3 46 +32 +32 душно 1013.8 1013.0
00 19.06 ЮЗ 2 10 км 8/0
[Ac cast]
+25.0 +18.1 66 +29 +29 душно 1014.5 1013.7
03 19.06 ЮЗ 2 10 км 5/0
[Ac trans]
+23.9 +18.1 70 +28 +28 душно 1013.7 1012.9
06 19.06 ЮЗ 3 10 км 9/0
[Ac As]
+23.6 +18.1 71 +28 +28 душно 1013.7 1012.9 +23.1
09 19.06 ЮЗ 1 10 км 6/0
[Ac trans]
+26.1 +18.1 61 +31 +36 очень
душно
1013.9 1013.1
12 19.06 ЮЗ 1 10 км ясно +32.2 +18.1 43 +37 +61 опасность
солнечного
удара
1013.4 1012.6
15 19.06 З 2 10 км ясно +37.6 +16.8 29 +40 +57 опасность
солнечного
удара
1012.1 1011.3
18 19.06 З 2 10 км ясно +38.2 +16.4 28 +40 +43 очень
душно
1009.8 1009.0 +39.2
21 19.06 З 2 10 км ясно +29.5 +17.9 50 +34 +34 очень
душно
1010.4 1009.6
00 20.06 ЮЗ 2 10 км 1/0
[Ac trans]
+25.0 +17.9 65 +29 +29 душно 1011.7 1010.9
03 20.06 ЮЗ 2 10 км 1/0
[Ac trans]
+25.0 +17.9 65 +29 +29 душно 1011.7 1010.9
06 20.06 ЮЗ 2 10 км ясно +23.9 +17.7 68 +28 +28 душно 1011.0 1010.2 +23.5
09 20.06 ЮЗ 1 9000 м 3/0
[Ci sp]
+26.0 +17.5 59 +30 +38 душно 1011.4 1010.6
12 20.06 Ю 1 10 км ясно +32.5 +17.9 42 +37 +61 опасность
солнечного
удара
1011.4 1010.6
15 20.06 ЮЗ 2 10 км ясно +36.1 +17.7 34 +40 +57 опасность
солнечного
удара
1010.0 1009.2
18 20.06 ЮЗ 1 10 км ясно +36.2 +17.7 34 +40 +43 очень
душно
1010.0 1009.2 +37.5
00 21.06 ЮЗ 2 10 км ясно +28.0 +19.6 60 +34 +34 очень
душно
1012.2 1011.4

 

Местоположение метеостанции Podor (Сенегал): широта 16.65 долгота -14.96 высота над уровнем моря 7 м.

В архиве по умолчанию представлена погода в Podor за последнюю неделю. Архивные данные за месяц целиком и за предыдущие месяцы, начиная с января 2011 года, Вы можете получить, выбрав интересующий диапазон дат из раскрывающегося списка и нажав кнопку "Ввод!".


*Определитесь, кто Вы:
робот инопланетянин человек

Внимание! Время в таблицах - всемирное. Для получения местного времени необходимо прибавить поправку, которая в Podor равна 0 ч.

Смотрите также архив погоды в соседних городах и на ближайших метеорологических станциях:

Погода в Rosso (Мавритания) (92 км)
Погода в Boutilimit (Мавритания) (102 км)
Погода в Linguere (Сенегал) (142 км)
Погода в Kaedi (Мавритания) (164 км)
Погода в Saint-Louis (Сенегал) (172 км)
Погода в Nouakchott (Мавритания) (192 км)
Погода в Matam (Сенегал) (214 км)
Погода в Diourbel (Сенегал) (261 км)
Погода в Kaolack (Сенегал) (304 км)
Погода в Kauur (Гамбия) (329 км)

Пояснения к столбцам:

Ветер - указаны скорость ветра в м/с - средняя за 10 мин, порывы в срок и между сроками (в фигурных скобках) и направление, откуда дует ветер: С - северный, СВ - северо-восточный, В - восточный, ЮВ - юго-восточный, Ю - южный, ЮЗ - юго-западный, З - западный, СЗ - северо-западный.
Видимость - горизонтальная дальность видимости в метрах или километрах. При видимости от 1 до 10 км при отсутствии осадков обычно наблюдается дымка, при ухудшении видимости до 1 км и менее - туман. В сухую погоду видимость может ухудшаться дымом, пылью или мглою.
Явления - указаны атмосферные явления, наблюдавшиеся в срок или в последний час перед сроком; фигурными скобками обозначены явления, наблюдавшиеся между сроками (за 1-3 часа до срока); квадратными скобками обозначены град или гололедные отложения с указанием их диаметра в мм.
Облачность - указаны через наклонную черту общая и нижняя облачность в баллах и высота нижней границы облаков в метрах; квадратными скобками обозначены формы облаков: Ci - перистые, Cs - перисто-слоистые, Cc - перисто-кучевые, Ac - высококучевые, As - высокослоистые, Sc - слоисто-кучевые, Ns - слоисто-дождевые, Cu - кучевые, Cb - кучево-дождевые. Подробнее классификацию облаков см. в Атласе облаков (PDF).
T - Температура воздуха - температура, измеренная на высоте 2 м над землей.
Td - Температура точки росы - температура, при понижении до которой содержащийся в воздухе водяной пар достигнет насыщения.
f - Относительная влажность воздуха - влажноcть воздуха, измеренная на высоте 2 м над землей.
Te - Эффективная температура - температура, которую ощущает одетый по сезону человек в тени. Характеристика душности погоды. При расчете учитывается влияние влажности воздуха и скорости ветра на теплоощущения человека.
Tes - Эффективная температура на солнце - температура, которую ощущает человек, с поправкой на солнечный нагрев. Характеристика знойности погоды. Зависит от высоты солнца над горизонтом, облачности и скорости ветра. Ночью, в пасмурную погоду, а также при ветре 12 м/с и более поправка равна нулю.
P - Атмосферное давление - приведенное к уровню моря атмосферное давление.
Po - Атмосферное давление - измеренное на уровне метеостанции атмосферное давление.
Tmin - Минимальная температура - минимум температуры воздуха на высоте 2 м над землей.
Tmax - Максимальная температура - максимум температуры воздуха на высоте 2 м над землей.
R - Количество осадков - Количество выпавших осадков за период времени, мм. При наведении курсора мыши на число - период времени, за который выпало указанное количество осадков.
R24 - Количество осадков - Количество выпавших осадков за 24 часа, мм.
S - Снежный покров - Высота снежного покрова, см. При наведении курсора мыши на число - состояние снежного покрова и степень покрытия местности в баллах.